Jamestown, ND

3:17 AM CDT on June 28, 2017 (GMT -0500)
Jamestown Municipal

Weather History for KJMS - August, 2013

Change the Weather History Date:

Wednesday, August 14, 2013

  Actual Average Record
Temperature  
Mean Temperature 61 °F 69 °F  
Max Temperature 77 °F 82 °F 103 °F (1937)
Min Temperature 45 °F 56 °F 34 °F (1968)
Degree Days  
Heating Degree Days 4 1  
Month to date heating degree days 21 13  
Since 1 June heating degree days 129 132  
Since 1 July heating degree days 44 35  
Cooling Degree Days 0 5  
Month to date cooling degree days 6 79  
Year to date cooling degree days 299 351  
Since 1 June cooling degree days 288 331  
Growing Degree Days 10 (Base 50)    
Moisture  
Dew Point 49 °F    
Average Humidity 61    
Maximum Humidity 86    
Minimum Humidity 36    
Precipitation  
Precipitation T in 0.06 in 1.87 in (1974)
Month to date precipitation 0.61 0.89  
Year to date precipitation 8.60 12.98  
Sea Level Pressure  
Sea Level Pressure 30.13 in    
Wind  
Wind Speed 3 mph (SE)    
Max Wind Speed 12 mph    
Max Gust Speed 14 mph    
Visibility 10 miles    
Events Rain    
T = Trace of Precipitation, MM = Missing Value Source: NWS Daily Summary

Daily Weather History Graph

Daily Weather History Graph

Search for Another Location

Airport or City:

Trip Planner

Search our weather history database for the weather conditions in past years. The results will help you decide how hot, cold, wet, or windy it might be!

Date:

Astronomy

Aug. 14, 2013 Rise Set
Actual Time 6:31 AM CDT 8:46 PM CDT
Civil Twilight 5:57 AM CDT 9:19 PM CDT
Nautical Twilight 5:16 AM CDT 10:01 PM CDT
Astronomical Twilight 4:28 AM CDT 10:47 PM CDT
Moon 3:05 PM CDT (8/14) No Moon Set
Length of Visible Light 15h 22m
Length of Day
14h 15m
First Quarter, 53% of the Moon is Illuminated
Aug 14
First Quarter
Aug 20
Full
Aug 28
Last Quarter
Sep 5
New
Sep 12
First Quarter

Hourly Weather History & Observations

Time (CDT) Temp. Dew Point Humidity Pressure Visibility Wind Dir Wind Speed Gust Speed Precip Events Conditions
12:56 AM 53.1 °F 45.0 °F 74% 30.18 in 10.0 mi Calm Calm - N/A   Clear
1:56 AM 51.1 °F 45.0 °F 80% 30.19 in 10.0 mi Calm Calm - N/A   Clear
2:56 AM 50.0 °F 44.1 °F 80% 30.19 in 10.0 mi Calm Calm - N/A   Partly Cloudy
3:56 AM 48.0 °F 44.1 °F 86% 30.19 in 10.0 mi Calm Calm - N/A   Clear
4:56 AM 46.0 °F 42.1 °F 86% 30.18 in 10.0 mi Calm Calm - N/A   Clear
5:56 AM 46.0 °F 43.0 °F 89% 30.17 in 10.0 mi Calm Calm - N/A   Clear
6:56 AM 46.0 °F 43.0 °F 89% 30.17 in 10.0 mi Calm Calm - N/A   Clear
7:56 AM 55.0 °F 48.9 °F 80% 30.17 in 10.0 mi East 3.5 mph - N/A   Clear
8:56 AM 60.1 °F 50.0 °F 69% 30.17 in 10.0 mi ESE 4.6 mph - N/A   Mostly Cloudy
9:56 AM 64.0 °F 51.1 °F 63% 30.18 in 10.0 mi SSE 3.5 mph - N/A   Mostly Cloudy
10:56 AM 68.0 °F 51.1 °F 55% 30.17 in 10.0 mi SE 6.9 mph - N/A   Partly Cloudy
11:56 AM 72.0 °F 50.0 °F 46% 30.15 in 10.0 mi SSE 5.8 mph - N/A   Clear
12:56 PM 73.0 °F 48.9 °F 42% 30.14 in 10.0 mi SSE 3.5 mph - N/A   Clear
1:56 PM 73.9 °F 46.9 °F 38% 30.13 in 10.0 mi SSE 5.8 mph - N/A   Clear
2:56 PM 75.9 °F 48.9 °F 38% 30.12 in 10.0 mi SE 3.5 mph - N/A   Clear
3:56 PM 75.0 °F 48.0 °F 38% 30.11 in 10.0 mi South 3.5 mph - N/A   Clear
4:56 PM 75.9 °F 46.9 °F 36% 30.10 in 10.0 mi SSW 4.6 mph - N/A   Partly Cloudy
5:56 PM 75.9 °F 48.0 °F 37% 30.09 in 10.0 mi ESE 4.6 mph - N/A   Mostly Cloudy
6:56 PM 73.0 °F 52.0 °F 48% 30.08 in 10.0 mi East 3.5 mph - N/A   Mostly Cloudy
7:56 PM 69.1 °F 55.9 °F 63% 30.06 in 10.0 mi East 4.6 mph - 0.00 in Rain Light Rain
8:56 PM 66.9 °F 55.9 °F 68% 30.06 in 10.0 mi East 3.5 mph - 0.00 in   Overcast
9:56 PM 66.9 °F 55.9 °F 68% 30.07 in 10.0 mi East 4.6 mph - N/A   Overcast
10:56 PM 66.0 °F 55.9 °F 70% 30.07 in 10.0 mi Calm Calm - N/A   Overcast
11:56 PM 64.9 °F 55.9 °F 73% 30.06 in 10.0 mi ESE 4.6 mph - N/A   Overcast